sat.trackr.live / text

‹ back to catalog

STARLINK-2635

NORAD 48355 · 2021-038C

PAYLOAD ACTIVE UNKNOWN

§ Identity

Operator
Country
US
Launch date
2021-05-04
Launch site
AFETR
Launch vehicle
Mass (kg)
RCS (m²)

Purposes: comms

External: N2YO · Heavens-Above · Gunter

§ Orbital elements

Epoch: 2026-05-25T00:18:21.492000Z

Period
94.01 min
Inclination
53.1607°
Eccentricity
0.0001297
Mean motion
15.31713255 rev/d
Perigee alt
469.8 km
Apogee alt
471.6 km
Semi-major
6,848.8 km
B*
9.8949e-5
RAAN
3.1329°
Arg perigee
80.0337°
Mean anomaly
280.0811°
Rev number
27,877

§ Raw data

STARLINK-26351 48355U 21038C   26145.01274875  .00002708  00000+0  98949-4 0  99902 48355  53.1607   3.1329 0001297  80.0337 280.0811 15.31713255278771

JSON: /api/v1/satellites/48355 · /tle

For live sub-satellite position, see the globe view (requires WebGL).

§ Visibility from observer

Set your observer location to see the next 7 days of passes ≥ 10°. The values pass through the URL so the page stays shareable.

No JS? Fill the form by hand. The geolocation button needs JavaScript.